Location: Biharia
(46.4333°N, 22.8000°E)
Time: 04:46:31
(UTC+00:00)

Cosmos 494 Rocket - Pass Details

Date: 29 May 2022
Orbit: 742 x 770 km, 74.1° (Epoch: 05 July)

Event Time Altitude Azimuth Distance (km) Brightness Sun altitude
Rises 22:28:11 0° 335° (NNW) 3,192 8.3 -21.8°
Reaches altitude 10° 22:30:34 10° 331° (NNW) 2,264 7.3 -21.8°
Maximum altitude 22:35:35 59° 253° (WSW) 860 4.1 -21.8°
Enters shadow 22:36:33 50° 210° (SSW) 948 4.1 -21.8°
